| time (UTC) | temp F | wind direction | speed knots | gust knots | rain 1hr in | rain 24hr in | rain mn in | humidity % | barometer mb |
| 20260831124503 | 64 | 90 | 0.0 | 2.6 | 0.00 | 0.03 | 0.01 | 90 | 1019.6 |
| 20260831123000 | 64 | 89 | 0.0 | 2.6 | 0.01 | 0.03 | 0.01 | 91 | 1019.4 |
| 20260831121559 | 64 | 78 | 0.0 | 1.7 | 0.01 | 0.03 | 0.01 | 92 | 1019.3 |
| 20260831120105 | 63 | 79 | 0.0 | 1.7 | 0.01 | 0.03 | 0.01 | 92 | 1019.2 |
| 20260831114557 | 63 | 304 | 0.0 | 1.7 | 0.01 | 0.03 | 0.01 | 91 | 1019.2 |
| 20260831113057 | 62 | 308 | 0.0 | 0.0 | 0.00 | 0.02 | 0.00 | 91 | 1019.1 |
| 20260831111610 | 62 | 308 | 0.0 | 0.0 | 0.00 | 0.02 | 0.00 | 91 | 1018.8 |
| 20260831110051 | 61 | 308 | 0.0 | 0.0 | 0.00 | 0.02 | 0.00 | 90 | 1018.7 |
| 20260831104550 | 61 | 308 | 0.0 | 0.0 | 0.00 | 0.02 | 0.00 | 90 | 1018.7 |
| 20260831103054 | 61 | 308 | 0.0 | 0.0 | 0.00 | 0.02 | 0.00 | 90 | 1018.6 |
| 20260831101552 | 61 | 308 | 0.0 | 0.0 | 0.00 | 0.02 | 0.00 | 90 | 1018.3 |
| 20260831100044 | 62 | 308 | 0.0 | 0.0 | 0.00 | 0.02 | 0.00 | 90 | 1018.2 |
| 20260831094545 | 62 | 308 | 0.0 | 0.0 | 0.00 | 0.02 | 0.00 | 90 | 1018.1 |
| 20260831093041 | 62 | 308 | 0.0 | 0.0 | 0.00 | 0.02 | 0.00 | 90 | 1017.9 |
| 20260831091554 | 62 | 308 | 0.0 | 0.0 | 0.00 | 0.02 | 0.00 | 89 | 1017.8 |
| 20260831090037 | 63 | 308 | 0.0 | 0.0 | 0.00 | 0.02 | 0.00 | 89 | 1017.7 |
| 20260831084536 | 63 | 308 | 0.0 | 0.0 | 0.00 | 0.02 | 0.00 | 89 | 1017.5 |
| 20260831083034 | 63 | 308 | 0.0 | 0.0 | 0.00 | 0.02 | 0.00 | 89 | 1017.5 |
| 20260831081537 | 64 | 308 | 0.0 | 0.9 | 0.00 | 0.02 | 0.00 | 89 | 1017.4 |
| 20260831080054 | 64 | 308 | 0.0 | 0.0 | 0.00 | 0.02 | 0.00 | 89 | 1017.3 |
| 20260831074528 | 64 | 308 | 0.0 | 0.0 | 0.00 | 0.02 | 0.00 | 89 | 1017.1 |
| 20260831073055 | 64 | 308 | 0.0 | 0.9 | 0.00 | 0.02 | 0.00 | 89 | 1017.1 |
| 20260831071525 | 65 | 308 | 0.0 | 1.7 | 0.00 | 0.02 | 0.00 | 89 | 1016.9 |
| 20260831070027 | 65 | 308 | 0.0 | 0.9 | 0.00 | 0.02 | 0.00 | 89 | 1016.9 |
| 20260831064521 | 65 | 308 | 0.0 | 1.7 | 0.00 | 0.02 | 0.00 | 89 | 1016.8 |
| 20260831063030 | 66 | 308 | 0.0 | 0.9 | 0.00 | 0.02 | 0.00 | 88 | 1016.8 |
| 20260831061517 | 66 | 308 | 0.0 | 1.7 | 0.00 | 0.02 | 0.00 | 88 | 1016.7 |
| 20260831060019 | 66 | 308 | 0.9 | 2.6 | 0.00 | 0.02 | 0.00 | 88 | 1016.6 |
| 20260831054517 | 67 | 306 | 0.9 | 2.6 | 0.00 | 0.02 | 0.00 | 88 | 1016.5 |
| 20260831053010 | 67 | 305 | 0.0 | 2.6 | 0.00 | 0.02 | 0.00 | 88 | 1016.4 |
| 20260831051507 | 68 | 306 | 0.9 | 2.6 | 0.00 | 0.02 | 0.00 | 88 | 1016.3 |
| 20260831050005 | 69 | 305 | 0.0 | 0.9 | 0.00 | 0.02 | 0.00 | 88 | 1016.2 |
| 20260831044502 | 69 | 305 | 0.0 | 0.9 | 0.01 | 0.02 | 0.00 | 88 | 1016.3 |
| 20260831043100 | 69 | 305 | 0.0 | 0.0 | 0.02 | 0.02 | 0.00 | 88 | 1016.3 |
| 20260831041609 | 70 | 305 | 0.0 | 0.9 | 0.02 | 0.02 | 0.00 | 88 | 1016.2 |
| 20260831040056 | 70 | 305 | 0.0 | 1.7 | 0.02 | 0.02 | 0.00 | 87 | 1016.4 |
| 20260831034600 | 70 | 304 | 0.0 | 0.0 | 0.01 | 0.01 | 0.01 | 87 | 1015.9 |
| 20260831033054 | 71 | 304 | 0.0 | 0.0 | 0.00 | 0.00 | 0.00 | 86 | 1016.2 |
| 20260831031553 | 71 | 304 | 0.0 | 0.0 | 0.00 | 0.00 | 0.00 | 86 | 1016.4 |
| 20260831030059 | 71 | 304 | 0.0 | 0.0 | 0.00 | 0.00 | 0.00 | 85 | 1016.3 |
| 20260831024552 | 72 | 304 | 0.0 | 0.9 | 0.00 | 0.00 | 0.00 | 84 | 1016.3 |
| 20260831023052 | 72 | 303 | 0.0 | 6.1 | 0.00 | 0.00 | 0.00 | 83 | 1016.4 |
| 20260831021551 | 73 | 337 | 0.0 | 1.7 | 0.00 | 0.00 | 0.00 | 82 | 1016.2 |
| 20260831020051 | 73 | 344 | 0.0 | 2.6 | 0.00 | 0.00 | 0.00 | 81 | 1016.2 |
| 20260831014550 | 73 | 18 | 0.0 | 0.9 | 0.00 | 0.00 | 0.00 | 80 | 1016.1 |
| 20260831013055 | 73 | 337 | 0.0 | 1.7 | 0.00 | 0.00 | 0.00 | 79 | 1016.2 |
| 20260831011551 | 73 | 347 | 0.0 | 0.9 | 0.00 | 0.00 | 0.00 | 78 | 1016.0 |
| 20260831010104 | 73 | 347 | 0.0 | 1.7 | 0.00 | 0.00 | 0.00 | 77 | 1016.0 |
| 20260831004556 | 73 | 335 | 0.0 | 3.5 | 0.00 | 0.00 | 0.00 | 76 | 1016.0 |
| 20260831003101 | 73 | 333 | 0.0 | 1.7 | 0.00 | 0.00 | 0.00 | 75 | 1015.9 |
| 20260831001547 | 73 | 333 | 0.0 | 4.3 | 0.00 | 0.00 | 0.00 | 75 | 1015.8 |
| 20260831000047 | 73 | 73 | 0.0 | 0.9 | 0.00 | 0.00 | 0.00 | 73 | 1015.7 |
| 20260830234546 | 73 | 73 | 0.0 | 2.6 | 0.00 | 0.00 | 0.00 | 71 | 1015.5 |
| 20260830233045 | 74 | 93 | 0.0 | 2.6 | 0.00 | 0.00 | 0.00 | 70 | 1015.6 |
| 20260830231545 | 74 | 351 | 0.0 | 0.9 | 0.00 | 0.00 | 0.00 | 69 | 1015.7 |
| 20260830230043 | 74 | 351 | 0.0 | 1.7 | 0.00 | 0.00 | 0.00 | 68 | 1015.6 |
| 20260830224543 | 75 | 71 | 0.0 | 0.9 | 0.00 | 0.00 | 0.00 | 68 | 1015.8 |
| 20260830223042 | 75 | 5 | 0.0 | 2.6 | 0.00 | 0.00 | 0.00 | 67 | 1015.8 |
| 20260830221540 | 75 | 102 | 0.0 | 1.7 | 0.00 | 0.00 | 0.00 | 67 | 1015.9 |
| 20260830220040 | 75 | 107 | 0.0 | 0.9 | 0.00 | 0.00 | 0.00 | 67 | 1016.0 |
| 20260830214538 | 76 | 107 | 0.0 | 1.7 | 0.00 | 0.00 | 0.00 | 67 | 1016.0 |
| 20260830213038 | 77 | 108 | 0.0 | 0.9 | 0.00 | 0.00 | 0.00 | 66 | 1016.0 |
| 20260830211537 | 77 | 108 | 0.0 | 0.0 | 0.00 | 0.00 | 0.00 | 65 | 1016.0 |
| 20260830210035 | 77 | 350 | 0.0 | 0.0 | 0.00 | 0.00 | 0.00 | 63 | 1016.0 |
| 20260830204537 | 78 | 350 | 0.0 | 0.9 | 0.00 | 0.00 | 0.00 | 61 | 1016.0 |
| 20260830203034 | 78 | 350 | 0.0 | 0.9 | 0.00 | 0.00 | 0.00 | 62 | 1016.2 |
| 20260830201532 | 78 | 350 | 0.0 | 0.9 | 0.00 | 0.00 | 0.00 | 61 | 1016.1 |
| 20260830200031 | 79 | 350 | 0.0 | 1.7 | 0.00 | 0.00 | 0.00 | 60 | 1016.3 |
| 20260830194529 | 79 | 279 | 0.9 | 2.6 | 0.00 | 0.00 | 0.00 | 57 | 1016.6 |
| 20260830193029 | 80 | 300 | 0.0 | 3.5 | 0.00 | 0.00 | 0.00 | 62 | 1016.6 |
| 20260830191528 | 80 | 348 | 0.0 | 2.6 | 0.00 | 0.00 | 0.00 | 59 | 1016.8 |
| 20260830190025 | 80 | 355 | 0.0 | 3.5 | 0.00 | 0.00 | 0.00 | 55 | 1017.0 |
| 20260830184523 | 81 | 312 | 1.7 | 7.8 | 0.00 | 0.00 | 0.00 | 52 | 1017.2 |
| 20260830183026 | 81 | 340 | 0.0 | 4.3 | 0.00 | 0.00 | 0.00 | 55 | 1017.1 |
| 20260830181522 | 82 | 310 | 0.0 | 3.5 | 0.00 | 0.00 | 0.00 | 52 | 1017.3 |
| 20260830180020 | 82 | 343 | 1.7 | 9.6 | 0.00 | 0.00 | 0.00 | 49 | 1017.4 |
| 20260830174537 | 82 | 355 | 1.7 | 10.4 | 0.00 | 0.00 | 0.00 | 51 | 1017.5 |
| 20260830173017 | 82 | 284 | 0.0 | 9.6 | 0.00 | 0.00 | 0.00 | 52 | 1017.6 |
| 20260830171519 | 82 | 315 | 2.6 | 10.4 | 0.00 | 0.00 | 0.00 | 53 | 1017.7 |
| 20260830170015 | 82 | 334 | 1.7 | 8.7 | 0.00 | 0.00 | 0.00 | 50 | 1017.8 |
| 20260830164515 | 81 | 200 | 0.9 | 8.7 | 0.00 | 0.00 | 0.00 | 52 | 1017.9 |
| 20260830163009 | 80 | 299 | 0.0 | 2.6 | 0.00 | 0.00 | 0.00 | 54 | 1018.0 |
| 20260830161508 | 80 | 343 | 0.0 | 7.0 | 0.00 | 0.00 | 0.00 | 56 | 1018.1 |
| 20260830160006 | 80 | 326 | 0.0 | 5.2 | 0.00 | 0.00 | 0.00 | 58 | 1018.3 |
| 20260830154506 | 80 | 329 | 0.9 | 4.3 | 0.00 | 0.00 | 0.00 | 58 | 1018.4 |
| 20260830153003 | 79 | 317 | 0.9 | 5.2 | 0.00 | 0.00 | 0.00 | 61 | 1018.6 |
| 20260830151559 | 79 | 326 | 0.0 | 5.2 | 0.00 | 0.00 | 0.00 | 62 | 1018.9 |
| 20260830150054 | 77 | 333 | 0.9 | 3.5 | 0.00 | 0.00 | 0.00 | 64 | 1019.0 |
| 20260830144550 | 76 | 326 | 2.6 | 8.7 | 0.00 | 0.00 | 0.00 | 63 | 1019.3 |
| 20260830143046 | 75 | 348 | 1.7 | 4.3 | 0.00 | 0.00 | 0.00 | 68 | 1019.3 |
| 20260830141542 | 73 | 349 | 0.0 | 7.8 | 0.00 | 0.00 | 0.00 | 72 | 1019.4 |
| 20260830140041 | 71 | 331 | 0.0 | 3.5 | 0.00 | 0.00 | 0.00 | 75 | 1019.6 |
| 20260830134533 | 69 | 335 | 1.7 | 3.5 | 0.00 | 0.00 | 0.00 | 76 | 1019.7 |
| 20260830133030 | 67 | 295 | 0.9 | 7.0 | 0.00 | 0.00 | 0.00 | 79 | 1020.0 |
| 20260830131525 | 65 | 313 | 0.0 | 2.6 | 0.00 | 0.00 | 0.00 | 83 | 1020.0 |
| 20260830130021 | 64 | 313 | 0.0 | 0.9 | 0.00 | 0.00 | 0.00 | 85 | 1020.0 |